Flag for Brazil Weather past 2 weeks in Manaus, Amazonas, Brazil

Now
73 °F

Partly sunny.


Feels Like: 70 °F
Forecast: N/A
Wind: 5 mph from South

Location: Manaus Aeroporto

Current Time: Feb 1, 2015 at 5:31:57 PM

Latest Report: Feb 1, 2015 at 5:00 PM


Visibility: N/A

Pressure: 29.89 "Hg

Humidity: 94%

Dew point: 72 °F

Location of ManausLocation

Historic Weather in Manaus — Graph

°F

Manaus temperature yesterday

Maximum temperature yesterday: 82 °F (at 11:00 AM)
Minimum temperature yesterday: 77 °F (at 2:00 AM)
Average temperature yesterday: 78 °F

Past Weeks' High & Low Weather Summary

 TemperatureHumidityPressure
High88 °F (Jan 18, 1:00 PM)100% (Jan 23, 11:00 AM)29.98 "Hg (Jan 23, 11:00 AM)
Low37 °F (Jan 23, 11:00 AM)55% (Jan 18, 3:00 PM)29.71 "Hg (Jan 30, 5:00 PM)
Average78 °F83%29.87 "Hg
* Reported Jan 17 4:00 PM — Feb 1 4:00 PM, Manaus, Weather by CustomWeather, © 2014

Note: Actual official high and low records may vary slightly from our data, if they occured in-between our weather recording intervals... More about our weather records

Advertising

Manaus weather history for previous 24 hours

 ConditionsComfort  
Time TempWeatherWind HumidityBarometerVisibility
4:00 PM
Feb 1
73 °FPartly sunny.5 mph89%29.89 "HgN/A
3:00 PM73 °FLight rain. Partly sunny.2 mph94%29.92 "HgN/A
2:00 PM73 °FLight rain. Broken clouds.3 mph94%29.92 "Hg5 mi
1:00 PM73 °FLight rain. Partly sunny.2 mph89%29.92 "HgN/A
12:00 PM72 °FLight rain. Partly sunny.3 mph94%29.95 "Hg3 mi
11:00 AM72 °FThunderstorms. Partly sunny.5 mph94%N/A1 mi
10:08 AM72 °FThunderstorms. Mostly cloudy.8 mph94%N/A1 mi
10:00 AM79 °FHeavy rain. Mostly cloudy.16 mph84%N/A1 mi
9:00 AM77 °FLight rain. Partly sunny.5 mph94%29.95 "Hg5 mi
8:00 AM77 °FPartly sunny.3 mph89%29.92 "HgN/A
7:00 AM75 °FPartly sunny.6 mph94%29.89 "HgN/A
6:00 AM75 °FPartly cloudy.3 mph94%29.86 "HgN/A
5:00 AM75 °FPassing clouds.3 mph94%29.86 "HgN/A
4:00 AM75 °FPassing clouds.3 mph94%29.86 "HgN/A
3:00 AM75 °FPassing clouds.3 mph94%29.86 "HgN/A
2:00 AM75 °FPassing clouds.3 mph89%29.86 "HgN/A
1:00 AM75 °FPassing clouds.6 mph89%29.86 "HgN/A
12:00 AM77 °FPassing clouds.6 mph83%29.89 "HgN/A
11:00 PM
Jan 31
77 °FPassing clouds.8 mph83%29.89 "HgN/A
10:00 PM77 °FPassing clouds.9 mph83%29.86 "HgN/A
9:00 PM77 °FPassing clouds.8 mph83%29.86 "HgN/A
8:00 PM77 °FPassing clouds.9 mph83%29.83 "HgN/A
7:00 PM79 °FPartly cloudy.10 mph79%29.83 "HgN/A
6:00 PM79 °FBroken clouds.12 mph79%29.80 "HgN/A
5:00 PM79 °FPartly sunny.9 mph84%29.80 "HgN/A
Weather by CustomWeather, © 2014

See weather overviewHow to use our weather pages